Notices

What's New in latest Release from April 7th, 2021:

- Updated Glossary, including Speed of Maximum Gust, and Total Hourly Precipitation

- Updated national and regional climate services offices contacts and prices information

- Addition of station inventory lists for 1981-2010, 1971-2000, and 1961-1990 Normals.

If you haven't already, please take our survey and provide feedback about our website: https://eccc.sondage-survey.ca/f/LanguageSelection.aspx?s=442ca660-fcf1-47c0-95a9-59707d6fd709

Hourly Data Report for June 03, 2003

TORONTO CITY
ONTARIO

43°40'00.000" N
79°24'00.000" W
112.50 m
6158355
71508
XTO

Download Data

Hourly Data (June 2003)
Hourly Data Report for June 3, 2003
TIME
LST
Temp Definition
°C
Dew Point Definition
°C
Rel Hum Definition
%
Precip. Amount Definition
mm

Wind Dir Definition
10's deg

Wind Spd Definition
km/h
Visibility Definition
km
Stn Press Definition
kPa
Hmdx Definition


Wind Chill Definition


Weather Definition


00:00 12.2 0.3 44   LegendMM LegendMM LegendMM 100.16     LegendNANA
01:00 12.3 0.7 45   LegendMM LegendMM LegendMM 100.16     LegendNANA
02:00 12.1 0.8 46   LegendMM LegendMM LegendMM 100.17     LegendNANA
03:00 11.6 1.3 49   LegendMM LegendMM LegendMM 100.14     LegendNANA
04:00 10.9 0.9 50   LegendMM LegendMM LegendMM 100.16     LegendNANA
05:00 10.2 2.6 59   LegendMM LegendMM LegendMM 100.22     LegendNANA
06:00 10.2 3.9 65   LegendMM LegendMM LegendMM 100.25     LegendNANA
07:00 12.5 4.7 59   LegendMM LegendMM LegendMM 100.21     LegendNANA
08:00 15.0 2.2 42   LegendMM LegendMM LegendMM 100.21     LegendNANA
09:00 16.5 0.6 34   LegendMM LegendMM LegendMM 100.24     LegendNANA
10:00 15.3 1.4 39   LegendMM LegendMM LegendMM 100.17     LegendNANA
11:00 15.5 0.9 37   LegendMM LegendMM LegendMM 100.12     LegendNANA
12:00 17.1 2.7 38   LegendMM LegendMM LegendMM 100.05     LegendNANA
13:00 16.6 1.1 35   LegendMM LegendMM LegendMM 100.03     LegendNANA
14:00 17.7 -0.2 30   LegendMM LegendMM LegendMM 100.01     LegendNANA
15:00 18.0 0.6 31   LegendMM LegendMM LegendMM 99.97     LegendNANA
16:00 17.2 -1.5 28   LegendMM LegendMM LegendMM 99.93     LegendNANA
17:00 16.9 0.5 33   LegendMM LegendMM LegendMM 99.92     LegendNANA
18:00 16.3 -1.4 30   LegendMM LegendMM LegendMM 99.90     LegendNANA
19:00 16.1 -1.6 30   LegendMM LegendMM LegendMM 99.92     LegendNANA
20:00 15.5 -2.1 30   LegendMM LegendMM LegendMM 99.97     LegendNANA
21:00 15.0 -1.6 32   LegendMM LegendMM LegendMM 100.00     LegendNANA
22:00 15.0 -2.1 31   LegendMM LegendMM LegendMM 99.93     LegendNANA
23:00 14.1 -1.6 34   LegendMM LegendMM LegendMM 99.94     LegendNANA

Notes on Data Quality.

Legend

  • E = Estimated
  • M = Missing
  • NA = Not Available*
  • [empty] = Indicates an unobserved value
Date modified: